Location: ????????
(56.1167°N, 38.6333°E)
Time: 20:26:13
(UTC+00:00)

SJ 16-02 - Pass Details

Date: 18 November 2025
Orbit: 585 x 594 km, 75.0° (Epoch: 14 December)

Event Time Altitude Azimuth Distance (km) Brightness Sun altitude
Rises 16:43:42 0° 221° (SW) 2,828 5.2 -28.9°
Reaches altitude 10° 16:45:59 10° 227° (SW) 1,930 4.3 -29.2°
Enters shadow 16:48:44 35° 251° (WSW) 978 2.7 -29.6°
